sat.trackr.live / text

‹ back to catalog

STARLINK-37306

NORAD 68680 · 2026-077U

PAYLOAD ACTIVE UNKNOWN

§ Identity

Operator
Country
US
Launch date
2026-04-11
Launch site
AFWTR
Launch vehicle
Mass (kg)
RCS (m²)

Purposes: comms

External: N2YO · Heavens-Above · Gunter

§ Orbital elements

Epoch: 2026-09-19T21:29:49.967808Z

Period
93.91 min
Inclination
97.2849°
Eccentricity
0.0002827
Mean motion
15.33457856 rev/d
Perigee alt
463.6 km
Apogee alt
467.4 km
Semi-major
6,843.6 km
B*
5.3441e-4
RAAN
132.8499°
Arg perigee
94.5463°
Mean anomaly
265.6103°
Rev number
2,492

§ Raw data

STARLINK-373061 68680U 26077U   26262.89571722  .00017226  00000+0  53441-3 0  99962 68680  97.2849 132.8499 0002827  94.5463 265.6103 15.33457856 24922

JSON: /api/v1/satellites/68680 · /tle

For live sub-satellite position, see the globe view (requires WebGL).

§ Visibility from observer

Set your observer location to see the next 7 days of passes ≥ 10°. The values pass through the URL so the page stays shareable.

No JS? Fill the form by hand. The geolocation button needs JavaScript.